Showing default

SECOR 7 (EGRS 7), 2411

Orbit data source: Space-Track

SECOR 7 (EGRS 7), 2411 is an American payload satellite in LEO that was launched on Fri, 19 Aug 1966 UTC via an ATLAS SLV-3 AGENA D launch vehicle from the Air Force Western Test Range (AFWTR). Payload-class satellites include a variety of spacecraft equipped with specific instruments for various scientific and technological missions. These include communications satellites like Starlink; space stations such as the ISS; scientific satellites like the Hubble; Earth observation satellites from companies like Planet Labs, Umbra, and HawkEye 360; GPS; miniature CubeSats for education and research; and military/defense satellites.

Loading next visibility...
Identifier
2411, 1966-077B
Orbit
LEO
Country
Flag of USUS
Related business
Manufacturer
ITT
Mission
Spacecraft
Bus & Motor
SECOR, Unknown motor
Mass
18 kg wet, 18 kg dry
Launch date (UTC)
1966-08-19 (59 years ago)
Launch vehicle
ATLAS SLV-3 AGENA D
Launch site
Air Force Western Test Range (AFWTR)
Object type
Payload
Rocket body
Debris
Shape & HBR
Unknown
Radar Cross Section
Medium (>0.1 m² and <1 m²)

Expand to show TLE details & history
Last TLE update: 1 day ago

TLE from 1 day ago
0 SECOR 7 (EGRS 7)
1 02411U 66077B   25304.90025360  .00000023  00000-0  10521-1 0  9998
2 02411  90.3298 274.7726 0011648 289.1609  70.7982  8.59615688857763
Epoch: 2025-10-31T21:36Z
TLE epoch observation values (Epoch: 2025-10-31T21:36:21.911Z)
Latitude
0.00004°
Longitude
-89.75675°
Altitude
3,686.406 km
Speed
6.295 km/s
True Right ascension
18h 19m 05s
True Declination
0° 00' 00"
Sunlit
Object was in daylight at epoch
Visualization orbit readout
Latitude
Unknown
Longitude
Unknown
Altitude
Unknown
Speed
Unknown
Apparent Right ascension
Unknown
Apparent Declination
Unknown
Sunlit
N/A
Visualization observer readout
Local Sidereal Time
18:33:37
Azimuth
Unknown
Elevation
Unknown
Doppler factor
Unknown
Orbital elements
Apogee altitude
3,697.606 km
Perigee altitude
3,674.161 km
Semi-major axis
10,064.021 km
Eccentricity
0.00116
Inclination
90.3298°
RAAN
274.7726°
Arg. of periapsis
289.1609°
True anomaly
70.92431°
Mean anomaly
70.7982°
Eccentric anomaly
70.86125°
Mean motion
2.14974 °/min
Orbital period
167.46 mins
BSTAR
0.010521
Loading maneuver chart data...
Computing Atmospheric mass density...
Loading historical data...
Loading historical data...
Loading historical data...
Loading historical data...
Loading historical data...
Loading historical data...
Loading historical data...

Documentation

Showing up to 5 results
|